Theta_e
302 303 302 303 302 303 303 303 303 303 304 304 304 305 305 305 305 306 306 307 308 308 308 308 308 308 309 309 309 309 310 309 309 311 310 307 307 307 306 305 306 306 306 307 309 309 309 310 310 310 310 310 311 311 311 311 312 315 315 313 311 309 308 308 308 308 308 306 306 307 307 307 306 307 307 307 307 308 307 307 307 306 306 305 305 305 303 302
303 303 303 303 303 303 303 303 303 304 304 304 304 305 305 305 306 306 307 307 308 308 308 309 308 308 309 309 310 310 310 310 310 310 308 308 308 307 306 306 306 306 307 307 309 310 309 310 310 310 310 310 310 310 310 310 310 312 312 310 309 308 307 308 308 308 307 306 306 306 306 306 306 306 307 307 308 308 307 306 307 306 306 305 305 304 303 303
303 303 303 303 303 303 303 303 304 304 304 304 304 305 305 305 306 306 307 307 308 309 309 309 309 309 309 309 309 310 311 311 310 309 307 308 309 308 307 306 306 306 307 307 308 310 310 310 310 309 309 309 309 309 309 309 310 309 309 308 307 307 307 307 307 307 307 307 307 306 306 306 306 306 307 308 308 307 307 306 306 306 305 305 304 304 304 303
303 303 303 303 303 303 303 304 304 304 304 304 305 305 305 305 306 306 306 307 308 309 309 309 309 309 308 308 308 309 312 312 308 307 308 308 309 309 308 308 307 306 307 308 309 310 311 311 311 310 310 309 309 309 308 309 309 308 307 307 307 307 306 306 306 306 306 307 307 306 307 306 305 306 306 307 308 307 306 306 306 305 305 304 304 304 304 302
303 303 303 303 303 303 304 304 304 304 304 305 305 305 306 306 306 307 307 308 308 308 309 309 309 309 309 308 308 308 311 313 308 306 308 308 308 309 309 309 308 307 309 311 311 311 311 311 311 311 310 310 309 309 308 308 308 308 307 307 307 306 306 306 305 305 306 307 307 307 307 306 306 306 306 307 306 306 306 305 305 305 305 304 304 304 304 302
303 303 303 304 304 304 304 304 304 305 305 305 306 306 306 306 306 307 307 307 307 307 308 308 309 309 309 309 309 309 310 310 307 306 308 308 308 309 309 309 308 308 310 311 311 312 312 311 311 310 310 309 309 309 308 308 308 307 307 307 307 306 306 305 305 304 306 306 307 307 306 306 307 306 306 306 306 306 305 305 305 305 305 304 305 304 303 302
303 304 304 304 304 304 304 304 305 305 306 306 306 306 306 307 307 307 307 307 307 307 307 308 309 309 310 309 310 310 308 306 305 306 307 308 309 309 309 309 309 309 310 310 311 312 312 311 310 310 310 309 309 308 308 308 308 307 306 306 306 306 306 305 305 305 305 306 305 306 306 306 306 306 306 306 306 305 305 305 305 305 305 305 305 303 303 302
303 304 304 304 304 304 304 305 305 305 306 306 306 307 307 307 308 308 308 308 307 308 308 309 310 310 310 311 311 309 306 304 305 305 306 308 309 309 310 310 310 310 311 310 311 312 312 311 311 310 310 310 309 309 308 308 307 307 306 306 306 305 305 305 305 306 305 305 306 306 306 306 305 306 306 306 305 305 305 305 305 305 306 305 304 303 303 302
303 304 304 304 304 305 305 305 305 306 306 306 306 307 307 308 308 308 308 308 308 309 309 309 309 309 310 311 312 310 306 305 305 305 306 307 309 309 310 311 311 311 311 310 311 312 311 311 311 310 310 310 310 309 309 309 307 307 306 306 306 306 306 305 306 306 306 306 307 307 306 305 306 306 306 306 305 305 305 306 306 306 305 305 304 303 303 302
304 304 304 304 305 305 305 306 306 306 306 306 306 306 307 308 308 308 308 309 309 309 309 309 309 309 310 311 312 309 306 305 305 306 306 308 309 309 310 310 311 311 310 310 310 310 310 310 310 310 309 309 309 309 309 309 307 307 307 306 306 306 306 306 305 305 306 306 306 307 306 305 306 306 306 306 305 305 306 306 307 306 305 304 304 304 303 303
304 304 305 305 305 305 306 306 306 306 306 306 307 307 307 308 308 309 309 309 308 308 308 309 310 310 312 311 310 307 306 306 306 306 307 308 309 310 310 309 310 311 310 310 310 310 310 310 310 311 310 309 308 307 307 307 307 307 307 306 306 307 306 306 306 305 306 305 305 306 306 307 307 306 305 305 306 305 306 306 307 306 305 305 304 304 304 303
305 305 305 305 306 306 306 306 306 306 306 307 307 307 308 308 308 309 310 310 309 309 308 309 310 311 312 311 307 306 306 306 307 307 308 309 309 310 310 309 309 310 310 310 309 309 310 310 311 311 310 308 308 308 307 307 307 307 307 307 306 307 306 307 306 306 306 306 305 305 306 308 308 306 305 305 305 305 306 307 307 306 305 305 304 304 304 303
305 305 305 306 306 306 306 306 306 306 306 307 307 307 308 309 309 309 310 310 310 310 309 309 310 311 312 310 306 307 307 307 307 307 308 309 310 309 309 309 309 309 310 310 309 309 310 310 311 310 309 308 308 308 307 307 307 308 308 307 307 309 307 307 307 307 306 306 305 305 307 309 307 306 305 305 305 305 306 306 306 306 305 305 304 304 304 304
306 306 306 306 306 306 306 306 306 306 306 306 307 307 307 309 310 310 310 310 310 311 312 311 311 312 312 309 307 308 308 308 308 308 308 309 310 310 309 309 309 309 309 309 308 309 309 309 310 309 308 308 307 308 308 307 307 309 310 309 311 313 308 306 307 306 306 306 305 305 308 308 306 306 306 304 305 305 306 306 306 306 305 305 304 304 304 304
306 306 306 306 306 306 306 307 307 307 307 306 307 308 308 309 310 310 310 311 310 310 312 312 313 313 312 309 309 309 308 309 309 309 309 309 310 310 309 310 309 309 309 309 309 309 309 309 310 310 309 309 309 310 310 309 308 311 314 314 315 315 309 306 306 307 306 306 306 306 308 308 306 306 306 305 305 305 306 306 306 306 305 305 304 304 304 304
306 305 306 305 305 306 307 307 307 307 307 307 307 308 309 309 310 311 311 311 311 311 312 313 313 314 314 311 310 309 309 309 308 309 310 310 310 309 310 310 310 310 310 310 310 311 311 311 311 310 310 311 312 314 314 313 312 314 316 316 315 314 311 308 306 305 306 306 307 307 307 308 307 307 306 305 306 305 305 306 306 306 305 304 304 304 304 304
305 305 305 305 306 306 307 308 308 308 308 307 307 308 308 309 310 311 310 310 312 313 313 313 313 314 313 312 311 309 309 309 309 310 310 310 310 309 310 310 310 310 311 311 311 312 312 313 313 311 309 309 310 313 318 319 317 316 317 315 312 311 311 310 307 305 305 306 307 307 307 308 308 307 307 306 306 305 305 305 305 305 305 304 304 304 304 304
305 305 305 305 307 307 308 310 310 310 309 309 309 309 310 310 310 310 310 310 312 313 315 314 315 317 314 310 309 309 310 309 309 309 310 310 310 310 311 310 311 313 314 314 312 312 313 312 312 311 308 307 306 310 317 318 315 315 315 314 312 311 311 310 308 306 305 305 307 308 308 308 308 307 307 307 306 305 305 305 305 305 305 305 304 304 304 304
305 305 305 306 307 309 309 310 310 310 310 310 311 311 312 312 312 312 312 312 312 313 314 312 313 315 312 309 309 310 310 310 309 309 310 311 311 311 312 313 313 314 316 316 313 311 311 310 310 311 308 306 305 306 310 310 310 311 312 312 312 312 311 309 307 305 305 306 307 308 308 308 308 308 307 306 306 305 305 305 305 305 305 304 304 304 303 303
305 305 305 306 308 309 309 310 310 309 309 310 310 311 315 315 313 311 311 311 310 309 310 310 309 310 309 309 310 311 312 311 310 310 310 311 312 312 313 316 316 314 315 316 315 311 309 309 309 309 306 305 305 305 306 307 308 309 311 312 311 312 311 308 306 305 305 307 308 308 308 308 308 309 307 306 306 305 306 306 305 305 305 304 304 304 303 303
305 305 305 306 308 310 310 309 309 309 309 310 312 313 316 318 315 311 309 309 308 308 309 309 309 309 308 309 310 311 312 312 311 310 311 311 313 314 313 316 317 316 314 313 314 310 308 309 308 306 305 304 305 306 306 307 308 309 310 312 312 312 311 308 307 306 305 307 308 308 308 308 308 309 308 306 306 306 306 305 305 304 304 304 304 303 303 303
305 306 306 306 307 310 310 310 310 310 310 311 313 313 314 314 314 312 310 309 308 308 309 309 309 309 309 309 309 311 311 311 311 310 310 311 312 314 313 314 314 314 313 313 315 313 310 309 307 305 304 304 306 307 307 307 308 310 311 312 313 312 311 309 307 306 306 307 308 309 308 307 308 308 308 306 305 306 306 305 304 304 304 303 303 303 303 303
305 306 306 306 306 309 311 311 310 310 311 311 312 312 312 312 312 312 312 312 310 308 309 309 310 309 310 309 309 311 310 308 309 308 309 310 311 312 312 313 313 312 311 313 314 314 313 309 306 304 303 305 307 306 306 307 308 310 311 312 312 310 310 311 308 306 306 307 307 307 306 306 308 308 307 306 306 306 305 305 304 304 304 303 303 303 303 303
305 305 306 306 306 307 310 310 309 309 309 309 309 309 309 309 311 312 312 314 313 310 309 310 310 310 310 309 308 311 310 308 307 307 308 310 310 311 310 310 313 313 310 310 310 310 310 307 304 304 305 306 308 306 305 307 311 311 309 309 308 306 306 307 307 306 307 308 307 307 309 311 310 309 308 307 306 305 305 305 304 304 304 303 303 304 304 303
305 306 306 306 306 306 308 310 309 308 307 307 308 307 308 308 309 310 312 316 316 312 311 311 311 310 309 310 309 309 311 310 307 307 307 308 310 311 309 309 312 314 313 312 310 308 309 306 305 306 307 308 309 307 305 306 312 312 306 305 305 304 303 304 306 309 311 313 308 307 314 317 312 309 309 308 306 306 305 305 304 304 304 304 304 304 303 303
305 306 306 307 307 306 307 308 308 308 308 307 307 307 307 307 307 307 313 319 317 312 312 313 313 312 310 310 310 310 315 313 308 307 307 308 309 311 312 310 309 312 311 309 309 308 308 307 306 307 308 310 310 308 305 305 310 313 307 303 304 303 304 305 307 310 315 316 309 307 313 317 314 310 310 308 307 308 307 305 305 304 304 304 304 304 304 303
306 306 306 307 307 307 307 308 307 307 307 307 307 307 307 306 307 307 312 319 317 312 312 312 313 312 310 310 310 312 316 314 310 308 307 308 309 310 314 313 311 310 305 306 311 309 308 308 307 308 310 311 310 308 306 304 308 313 306 303 305 304 305 306 307 310 312 312 310 309 310 313 316 313 310 309 308 309 309 307 306 304 305 305 304 304 304 303
305 306 307 307 307 308 308 307 307 306 306 307 306 306 306 306 306 307 315 317 312 310 310 311 310 310 310 311 310 310 311 310 311 310 307 308 309 310 313 312 312 311 305 310 316 309 306 308 307 308 310 309 308 306 305 304 307 309 304 303 304 304 305 306 308 310 310 311 313 311 309 313 318 313 309 308 309 309 310 309 307 305 305 305 304 304 304 303
306 306 307 307 308 308 308 308 308 307 307 306 306 306 306 306 306 312 318 314 309 309 310 311 311 309 311 313 311 310 310 309 310 310 308 308 308 309 311 311 311 311 308 311 315 309 306 305 304 306 308 307 306 304 303 304 306 306 303 304 304 304 306 306 308 310 310 314 315 310 308 313 317 314 310 309 309 309 309 308 307 305 305 305 304 304 304 303
306 307 307 307 308 308 308 308 308 308 307 306 306 306 306 308 312 317 317 313 312 311 309 312 312 309 312 316 313 310 311 310 309 309 310 309 308 308 308 309 310 311 309 309 310 308 305 303 303 305 305 304 304 304 303 303 304 304 304 306 306 306 306 307 308 308 312 318 314 308 307 309 314 315 312 311 310 309 308 308 307 306 305 305 305 304 304 303
306 307 307 308 308 308 309 308 308 308 307 306 306 306 309 315 318 319 314 311 312 311 311 313 312 309 312 316 313 311 312 312 309 310 311 310 308 307 308 309 311 313 313 311 311 308 306 306 306 304 303 303 304 305 305 302 302 304 306 307 311 313 310 310 310 310 317 323 313 306 306 307 313 315 310 308 308 307 307 307 306 306 305 305 304 304 304 303
306 307 307 308 308 308 309 309 309 308 306 307 306 307 314 319 318 317 312 310 312 313 312 313 310 310 312 314 312 310 311 312 310 310 313 312 309 306 308 308 308 316 319 316 316 313 310 308 306 304 304 303 305 309 309 306 304 307 308 310 317 322 318 317 319 317 321 320 310 306 307 310 314 312 308 308 308 306 307 306 305 305 305 304 304 304 303 303
307 307 307 307 308 308 309 309 309 308 307 307 307 311 317 319 317 314 311 311 311 310 310 310 310 309 311 315 313 308 310 312 311 311 312 313 312 308 307 305 305 313 318 316 316 316 315 311 307 307 306 303 305 309 311 311 309 310 311 313 319 322 321 322 323 321 323 318 309 304 307 314 315 311 308 307 307 306 306 305 305 305 304 304 304 304 304 304
306 307 307 307 308 308 309 309 309 308 307 306 311 316 319 318 316 311 311 311 307 306 307 308 311 311 311 313 311 307 312 313 311 312 312 312 312 311 309 306 304 308 311 314 314 314 318 319 312 309 307 304 304 305 305 306 307 310 308 310 316 316 316 321 321 322 323 319 312 307 309 316 315 311 308 306 306 306 306 305 305 305 305 304 304 304 304 304
307 307 307 307 308 308 308 309 309 309 306 308 316 322 320 317 315 313 313 309 305 307 307 305 311 315 312 311 309 306 310 313 312 311 312 311 310 309 307 305 304 304 307 314 314 311 317 319 310 305 304 302 303 303 301 303 309 311 308 311 315 311 310 315 317 315 314 315 316 314 316 317 312 309 307 305 305 305 305 306 305 305 305 304 304 304 304 305
307 307 307 307 308 308 309 308 309 308 306 311 321 323 318 314 313 314 314 309 307 310 310 310 313 318 315 313 312 309 308 310 312 312 311 309 307 307 306 303 302 302 305 311 311 310 316 318 309 304 304 301 301 302 300 303 310 311 311 313 310 304 306 313 315 310 308 314 320 318 317 316 311 309 307 305 306 305 305 306 305 305 305 305 305 305 304 305
307 307 307 307 307 308 309 308 309 308 307 315 324 320 311 306 305 307 308 306 306 308 311 315 315 315 318 316 314 313 311 310 312 314 312 310 308 306 305 304 302 301 302 305 309 308 311 316 310 306 308 303 299 301 301 301 305 310 312 309 305 304 306 310 314 314 314 318 320 316 316 317 316 314 309 306 307 307 306 306 306 306 306 305 305 305 305 305
307 307 307 307 307 308 308 309 309 308 311 319 323 314 305 303 303 302 303 304 307 309 312 315 314 312 316 318 315 312 313 314 314 314 312 312 310 306 304 305 302 300 299 301 307 306 306 316 313 306 309 306 299 303 307 304 302 306 308 304 305 311 312 312 314 315 317 318 319 318 316 316 317 314 310 309 310 308 307 307 306 306 306 306 305 305 305 304
307 308 308 307 307 307 308 309 308 309 316 323 322 313 305 303 302 300 301 303 306 310 314 314 312 311 312 315 315 312 312 313 313 312 312 312 312 306 304 304 303 301 299 300 305 305 305 314 316 307 305 305 304 307 311 309 303 303 305 304 306 310 311 311 311 312 314 316 318 320 318 316 315 312 310 310 310 308 308 308 307 306 306 306 305 305 304 304
306 309 310 307 307 308 308 309 308 311 319 320 316 310 302 302 303 299 300 303 303 308 313 312 311 313 312 311 311 310 310 310 310 311 311 310 310 308 303 302 302 301 300 300 302 304 305 311 317 311 306 307 310 308 308 309 307 307 309 308 308 308 307 309 309 308 310 314 315 316 318 318 313 309 309 309 309 309 308 308 307 306 306 305 305 305 304 304
307 312 311 306 307 308 308 310 310 310 313 310 307 305 301 301 303 300 299 301 301 303 306 308 310 311 311 311 310 308 309 310 309 310 310 308 310 310 304 300 300 300 300 302 303 304 306 309 313 313 311 313 310 301 300 303 304 306 308 307 308 308 308 312 313 308 307 310 311 311 314 316 312 308 308 308 307 307 306 306 306 306 306 305 305 305 305 305
308 313 310 306 308 308 309 314 309 306 309 308 304 304 302 301 301 301 300 300 301 301 302 305 308 308 308 310 309 307 308 310 309 309 309 308 309 308 302 298 299 298 300 304 304 301 303 306 310 313 312 310 304 297 297 299 299 302 304 305 306 306 308 312 313 310 308 307 307 307 311 316 311 306 306 306 305 305 305 305 305 305 305 305 305 305 305 305
307 310 307 307 308 306 312 318 311 304 304 302 299 299 300 299 300 300 299 300 302 302 303 305 306 307 306 306 307 307 308 310 311 309 308 307 305 302 299 297 298 299 300 305 305 301 302 306 310 313 311 305 300 297 297 296 298 303 304 303 305 306 307 308 308 308 308 308 308 308 311 317 311 304 304 305 305 305 306 306 305 305 305 306 306 306 305 305
306 307 306 307 308 308 316 324 318 308 301 299 299 300 299 299 299 300 300 301 302 302 305 306 305 305 303 302 306 307 305 310 313 309 307 308 305 299 297 297 298 300 302 304 304 302 305 308 309 313 317 313 309 307 305 301 302 306 307 304 305 307 307 307 305 306 309 311 311 310 314 318 311 305 304 304 304 304 306 306 306 306 306 306 306 306 305 305
308 310 308 306 307 309 315 317 314 310 304 303 304 302 302 301 299 299 300 301 300 300 304 306 303 302 301 300 305 305 301 305 311 309 306 307 304 298 296 297 297 299 300 299 299 300 305 308 307 312 318 319 318 317 314 310 307 308 307 305 306 307 307 307 306 307 310 311 310 312 316 316 310 308 308 307 306 306 307 307 307 307 307 306 306 305 305 305
308 314 314 310 308 307 308 307 307 308 307 309 309 305 305 306 301 298 299 301 300 299 302 303 301 302 302 303 309 312 306 303 305 307 307 307 304 298 296 297 297 298 298 297 297 299 303 305 305 309 313 314 314 314 311 309 307 308 308 307 307 306 306 307 307 308 311 310 309 311 312 311 309 309 309 309 308 308 307 307 307 307 307 306 306 305 305 305
309 312 311 312 312 310 308 306 305 307 308 311 312 307 306 307 304 300 299 299 299 298 300 301 300 304 308 308 311 314 309 304 304 306 307 306 303 298 296 297 298 297 297 297 297 299 302 305 306 307 308 309 309 308 308 306 306 306 307 308 308 306 306 306 307 309 311 310 311 312 310 309 309 308 308 308 307 307 306 306 307 307 306 306 306 305 305 305
311 309 304 307 313 314 313 310 306 305 306 308 308 307 307 308 307 305 302 299 298 298 302 305 304 306 309 309 311 313 310 309 308 307 307 305 303 301 299 298 297 297 298 297 296 298 302 306 305 304 306 307 306 305 306 304 304 305 305 306 307 307 306 306 305 306 308 309 311 311 310 308 307 306 306 306 305 306 306 306 306 306 306 306 306 306 305 305
308 308 304 305 309 307 307 308 305 305 306 306 307 307 307 310 310 306 302 300 301 299 301 308 309 306 306 307 310 313 312 312 312 309 307 305 304 304 304 303 299 297 298 298 295 295 301 306 305 303 304 304 304 305 304 304 304 305 305 305 306 306 306 305 305 305 306 306 307 307 307 306 305 305 305 305 305 306 306 306 306 306 306 306 306 306 306 305
306 308 305 305 306 302 302 305 306 309 309 307 309 309 307 309 311 306 301 303 308 304 300 307 311 306 305 307 309 311 311 311 312 311 308 307 307 305 306 306 302 297 297 298 297 295 299 306 306 303 304 306 306 307 306 306 306 305 305 305 305 306 306 305 305 305 305 305 305 305 305 304 304 304 304 305 306 306 306 306 306 306 307 306 306 306 306 305
305 306 305 307 308 303 302 304 305 309 311 309 312 311 308 310 310 307 303 303 307 306 302 306 310 306 305 307 307 309 308 307 309 308 306 306 307 305 304 304 303 301 299 298 298 298 299 304 305 303 306 309 307 308 308 307 307 307 307 307 305 305 306 306 305 305 305 305 304 305 306 305 305 305 306 306 306 306 306 306 306 307 307 306 306 306 306 305
305 305 304 308 311 306 303 304 304 309 312 311 310 309 308 310 308 305 307 305 303 303 303 303 306 306 306 307 307 307 305 304 303 303 303 303 302 301 302 302 302 304 301 298 300 300 299 302 304 304 308 309 306 307 308 307 312 317 315 311 308 306 305 305 306 305 305 305 305 306 308 307 306 306 307 306 305 305 306 306 306 307 306 306 306 306 305 305
Wind_Speed
12 13 13 13 14 14 13 13 12 12 13 13 13 12 10 8 7 8 7 6 2 3 6 7 9 13 16 19 23 26 30 33 32 31 30 29 21 17 18 17 17 15 11 11 15 17 15 13 9 7 12 15 15 12 12 18 18 8 4 6 5 4 4 4 5 5 6 5 6 5 6 5 4 4 4 4 1 5 6 9 8 8 9 9 8 11 15 18
12 13 13 14 14 13 13 12 12 12 13 13 11 9 8 8 10 12 14 14 9 4 6 4 5 8 11 13 15 20 28 28 29 36 33 23 19 19 18 17 18 17 13 14 18 18 16 14 12 12 17 19 16 14 12 15 20 12 4 5 5 3 5 7 8 8 8 6 7 6 7 8 5 6 7 5 4 7 8 9 8 8 10 10 11 14 16 18
13 13 12 12 12 12 12 12 12 12 12 11 10 9 8 8 10 13 18 25 23 13 6 5 5 4 5 7 8 12 22 24 25 33 32 24 22 20 19 18 18 17 17 16 18 18 15 12 14 17 22 23 19 20 18 14 15 13 8 6 4 5 8 10 10 10 9 6 8 6 5 8 7 6 7 7 4 6 9 8 10 10 11 12 13 15 17 16
13 12 12 11 11 11 12 12 13 13 12 10 10 9 7 8 8 12 19 26 28 22 13 5 4 6 5 3 3 4 10 21 26 31 29 26 24 20 19 18 16 16 17 18 15 16 15 12 13 16 20 19 18 24 22 14 10 10 9 6 5 9 8 9 10 9 9 7 7 5 3 6 6 7 9 10 4 4 9 9 8 9 11 12 14 15 15 15
14 13 13 13 13 14 14 15 14 13 12 11 11 10 10 9 8 13 18 21 22 21 20 18 10 3 3 6 4 3 1 7 17 27 29 28 24 21 19 17 17 14 14 16 15 15 13 10 12 18 20 14 13 17 15 13 13 10 10 11 11 10 7 7 9 8 8 6 5 4 4 4 3 5 10 11 5 4 7 7 6 7 9 11 13 15 14 15
15 15 16 17 18 19 17 16 15 14 13 12 12 13 15 13 8 7 8 9 10 11 13 19 25 23 17 11 4 4 8 4 13 25 30 28 23 22 20 17 16 14 13 13 14 16 13 12 17 19 17 14 14 13 12 15 13 9 10 14 14 11 9 7 7 8 7 5 6 5 5 3 2 4 7 9 7 4 5 5 6 7 9 10 12 13 13 14
17 17 17 17 17 17 16 16 15 14 13 13 14 16 18 16 12 8 4 6 7 8 7 10 22 26 26 26 20 23 26 14 14 22 27 28 23 20 19 16 16 12 11 12 15 18 16 18 24 21 13 12 14 13 18 22 18 12 8 11 14 12 11 9 7 8 6 6 7 4 3 4 4 3 4 7 5 4 4 4 6 8 9 9 10 11 13 13
17 16 15 14 14 14 15 14 13 13 13 14 15 16 17 18 19 16 13 11 8 8 6 10 13 12 13 16 21 30 30 18 16 21 23 25 24 22 18 17 17 13 12 12 13 16 18 20 20 18 13 10 10 12 16 18 16 12 8 10 12 11 11 9 8 7 6 7 5 2 3 5 4 3 4 5 4 3 3 4 6 8 9 8 9 11 12 12
17 16 15 14 14 14 14 13 13 12 12 13 14 15 15 16 17 17 19 18 17 16 11 9 4 5 8 10 16 23 22 17 15 19 21 21 24 24 21 20 19 15 17 15 13 15 18 20 18 15 15 12 10 9 7 6 7 9 11 12 12 10 9 7 8 7 5 5 3 3 3 3 1 1 3 4 3 3 4 5 5 7 7 7 9 11 12 11
16 15 15 14 13 12 11 11 11 10 10 11 12 12 12 13 12 13 14 14 16 20 19 14 7 6 10 15 21 15 13 15 14 17 19 19 22 23 23 23 21 18 19 18 19 22 23 23 21 21 19 14 13 12 11 7 7 12 15 15 13 11 8 6 7 6 4 4 5 5 3 3 2 2 1 3 3 3 5 4 4 5 6 7 9 11 11 11
14 13 13 11 10 9 9 9 8 9 9 11 11 11 10 10 10 12 13 11 7 6 11 14 15 15 15 23 29 16 11 15 15 16 18 19 22 23 23 23 22 22 20 18 20 21 21 19 16 15 13 13 15 16 16 14 15 19 17 14 13 12 9 7 7 3 1 2 3 6 3 1 2 2 1 2 3 3 5 4 3 4 5 7 8 10 11 11
12 11 10 9 8 7 6 6 7 7 8 10 11 11 11 10 8 10 14 16 11 6 4 5 8 10 15 29 31 17 13 16 15 17 17 19 21 21 23 21 20 23 22 21 21 17 15 10 8 10 10 11 11 9 11 13 16 16 11 9 9 9 8 5 5 2 1 1 1 3 2 2 3 1 2 1 2 3 6 5 3 4 5 6 8 9 11 12
11 11 10 10 9 7 6 5 5 5 6 7 8 8 10 11 9 7 9 14 16 15 12 10 9 6 12 24 24 14 13 16 16 16 16 17 19 19 21 21 19 19 21 24 24 21 18 10 8 16 15 9 6 6 9 9 8 6 2 4 6 5 4 4 4 1 1 1 0 1 1 1 3 4 3 0 2 3 5 5 4 4 5 6 8 10 11 12
13 13 13 12 12 10 9 7 6 4 4 5 6 7 7 10 12 10 9 9 10 14 15 16 16 15 20 20 17 16 14 16 17 16 16 15 16 18 17 18 20 18 17 20 21 20 21 17 16 20 18 14 12 10 8 5 4 2 2 2 3 1 2 3 7 5 0 1 1 1 1 2 4 5 4 0 1 2 5 5 5 4 5 7 8 10 10 12
14 13 12 12 12 11 10 10 8 6 3 3 5 8 8 9 12 13 14 13 11 11 12 14 13 17 24 18 14 18 16 17 18 17 17 15 15 16 13 14 19 20 20 19 18 17 18 19 20 18 13 12 11 7 3 3 4 2 2 1 3 2 3 2 8 9 3 1 2 2 2 1 4 6 5 0 1 1 5 6 5 4 5 6 8 10 10 12
10 10 10 10 10 10 9 9 10 9 6 4 5 7 7 8 9 12 14 15 16 12 11 15 15 17 18 11 13 19 20 21 19 16 16 17 16 13 10 12 14 16 17 17 17 17 15 16 18 16 11 6 2 0 1 1 2 1 2 2 4 3 2 2 5 11 9 6 4 6 2 2 3 6 6 2 1 2 6 7 5 4 5 6 7 9 10 13
8 9 10 10 9 8 8 10 14 14 13 10 8 6 5 4 3 5 7 9 12 12 15 17 14 17 17 9 12 18 23 21 15 13 14 15 15 12 9 8 9 10 11 11 11 13 13 12 10 10 13 9 5 4 1 2 2 3 3 2 1 2 2 1 2 9 12 7 2 6 4 3 3 6 5 3 2 3 6 7 5 5 5 6 7 8 10 13
8 9 9 10 10 8 9 15 17 18 19 18 16 15 14 12 7 4 3 2 4 7 11 12 8 9 12 13 12 14 21 20 15 14 13 12 12 12 12 10 7 6 8 9 9 11 10 9 7 4 8 10 8 7 4 2 3 4 4 2 1 1 2 3 1 5 9 6 4 4 5 3 1 4 5 5 3 3 5 6 5 5 6 6 7 8 10 13
9 9 9 9 10 8 8 12 13 11 12 11 13 15 16 20 21 18 15 12 11 9 6 13 14 6 4 14 11 9 16 22 20 15 10 10 10 10 13 14 11 8 7 6 9 13 10 8 9 5 5 7 7 7 4 3 5 4 3 2 2 2 1 3 2 3 6 4 5 5 4 4 4 3 4 5 3 3 6 5 4 6 5 5 6 7 10 13
9 9 9 9 10 9 4 6 4 4 6 4 3 4 4 10 15 20 29 31 27 20 12 15 19 13 9 16 14 8 12 19 22 17 11 10 9 9 11 10 10 13 9 3 6 11 10 8 7 4 4 6 6 6 5 5 5 3 4 3 1 1 1 2 2 3 4 3 4 4 4 6 6 6 5 5 2 4 6 4 4 5 4 5 7 7 9 12
9 9 9 9 10 11 7 3 1 3 6 3 2 4 4 5 6 10 23 29 26 24 22 20 19 16 14 17 19 13 10 14 19 19 14 10 8 8 12 10 6 8 6 3 5 9 11 9 4 4 4 5 5 5 5 6 6 4 3 4 2 1 1 1 3 2 4 3 4 3 5 7 6 7 6 7 4 5 3 1 3 5 5 6 7 8 10 13
9 9 9 8 8 12 12 8 6 6 8 11 14 17 17 16 16 17 18 17 18 21 22 22 21 19 15 14 19 19 17 16 19 22 17 13 13 10 12 13 7 5 5 3 4 7 8 6 3 5 4 6 5 4 4 4 5 4 3 4 3 2 3 0 4 2 3 1 4 5 7 8 8 8 6 9 6 4 2 2 3 4 5 6 7 9 10 12
8 9 9 7 6 10 12 12 14 14 15 18 20 23 22 20 19 19 16 12 12 17 17 19 22 23 20 14 13 18 24 18 16 23 22 15 15 14 12 11 7 7 10 7 5 5 5 3 4 4 5 5 3 5 6 4 3 3 3 2 3 4 3 1 2 4 5 2 4 6 7 8 7 5 5 8 8 4 3 4 3 4 5 5 7 7 8 10
8 9 8 7 5 6 8 12 12 11 13 16 17 17 15 13 12 11 11 8 7 11 14 15 19 22 22 18 11 12 21 20 16 22 24 18 11 10 9 7 6 7 8 9 10 9 4 2 4 3 4 4 3 5 8 4 1 3 4 3 2 3 2 3 4 6 6 2 3 6 5 4 3 4 4 5 6 4 5 6 4 5 5 5 7 5 5 10
9 8 8 7 5 4 6 8 6 4 7 9 10 12 9 7 7 5 4 5 4 7 11 11 13 17 20 20 12 6 11 17 20 20 21 20 13 6 5 6 5 4 4 6 9 8 4 2 3 3 3 3 2 3 5 4 2 1 2 1 2 3 4 5 6 6 4 1 2 2 2 3 2 5 3 3 4 4 8 10 6 4 4 5 5 4 5 9
9 9 8 7 5 3 4 4 3 4 3 2 5 8 7 5 5 4 1 2 2 6 8 8 9 12 17 19 13 3 4 9 16 20 19 19 15 5 3 6 5 4 3 3 4 3 4 3 2 2 4 4 0 2 2 3 3 2 3 2 2 3 4 5 4 3 1 2 3 2 3 2 3 2 3 5 3 5 6 10 8 4 3 4 4 5 7 8
9 8 8 7 6 3 1 1 3 6 6 6 7 5 4 4 2 2 2 2 2 4 5 6 6 8 12 18 15 5 1 6 10 18 19 16 16 10 5 3 3 4 1 2 3 1 2 5 5 4 3 2 2 1 2 2 2 3 3 3 4 3 4 4 2 1 1 2 3 3 3 1 3 3 1 4 1 6 2 5 7 5 3 3 3 5 7 8
9 8 8 7 6 4 2 1 3 5 6 5 5 3 2 2 1 1 2 2 2 3 4 4 4 6 7 14 20 12 4 7 5 12 18 15 14 13 9 4 3 3 1 3 2 1 1 3 5 5 4 3 1 2 2 1 0 1 1 2 3 3 3 3 2 3 2 2 2 4 3 1 3 4 2 3 2 4 2 4 5 4 3 2 4 6 7 9
8 8 8 7 6 5 3 2 2 4 4 4 2 1 1 1 0 1 2 1 2 2 3 4 3 7 7 6 15 14 10 10 6 8 15 14 12 9 7 5 5 6 8 6 4 1 0 1 2 3 3 2 2 5 3 2 3 1 2 1 2 2 3 2 2 3 2 2 0 4 3 2 3 4 1 1 3 2 3 4 4 4 2 3 4 5 7 9
8 7 8 8 7 6 4 3 1 2 2 2 1 1 1 2 2 2 1 1 1 1 3 5 2 8 10 2 7 12 9 9 9 9 11 12 14 12 7 6 6 5 7 9 6 2 2 2 1 1 1 3 5 7 6 7 5 3 3 1 2 1 1 2 2 2 1 1 1 2 3 2 1 3 1 2 1 1 2 2 3 4 4 4 4 5 8 10
8 7 8 8 8 8 7 5 2 2 2 2 3 3 2 2 2 2 1 1 1 2 3 4 3 6 8 2 3 9 6 6 10 10 7 7 12 14 8 4 6 3 2 4 4 1 2 1 1 0 2 5 4 5 5 6 3 2 1 2 1 0 0 0 1 1 2 2 2 1 1 1 1 3 1 4 3 4 3 3 4 6 7 7 7 8 10 12
8 7 8 9 9 10 9 7 4 2 3 4 5 3 2 2 2 1 1 1 1 2 2 2 3 3 4 2 2 5 4 4 8 7 3 3 5 9 7 4 3 2 3 4 2 0 1 1 1 1 2 6 3 3 2 1 1 1 1 2 2 2 2 2 2 1 1 2 3 2 1 1 3 3 3 6 5 5 3 2 3 4 6 8 9 10 11 12
8 8 8 9 10 11 9 7 4 2 4 5 5 3 3 2 1 1 1 1 1 1 1 1 2 2 2 3 3 4 2 2 6 5 3 2 2 3 7 9 5 0 1 4 2 2 2 2 3 0 2 8 7 2 2 2 4 4 3 2 3 3 3 3 3 3 1 2 3 3 1 1 2 2 3 5 5 5 3 1 1 4 6 8 9 10 12 13
9 8 8 10 11 10 9 8 5 2 4 5 4 4 5 2 1 0 1 1 1 1 2 1 2 2 3 3 1 2 2 1 4 6 5 4 4 3 4 9 10 3 1 3 2 2 2 2 4 2 2 7 6 2 0 2 4 4 1 1 2 2 2 1 2 2 3 5 3 1 1 1 2 1 3 7 6 4 2 1 2 4 6 7 9 11 12 12
9 9 8 10 11 11 10 7 5 3 6 5 3 4 3 1 1 1 1 1 0 0 0 1 2 1 2 2 0 1 1 1 3 4 5 4 3 3 3 5 8 5 2 1 1 1 1 1 2 2 2 3 3 1 1 1 2 4 2 2 1 0 1 1 0 1 2 3 3 2 2 3 2 1 3 5 3 4 3 4 5 5 7 7 9 11 11 12
9 9 8 10 12 11 10 7 4 3 5 3 4 3 1 1 1 1 1 1 1 1 1 1 2 2 1 0 1 2 1 1 2 2 4 3 2 2 1 1 4 5 2 2 1 1 1 2 2 1 2 1 2 2 1 2 1 2 3 2 1 1 2 1 1 1 1 1 3 2 2 3 2 2 1 2 2 5 5 4 5 5 6 7 9 10 11 12
9 8 7 10 12 12 10 7 4 4 4 4 5 2 0 1 0 2 4 2 0 1 2 1 1 1 1 0 1 1 1 1 2 2 1 1 2 1 1 0 2 3 3 2 1 1 0 2 1 0 2 0 1 2 3 2 1 1 2 1 1 2 3 2 1 2 2 2 3 3 4 4 2 3 3 1 3 6 6 4 4 5 5 5 8 10 11 14
9 7 7 10 12 12 10 6 4 4 4 5 4 2 1 1 1 2 3 3 2 1 1 1 1 1 1 0 1 1 2 1 2 2 1 0 1 1 1 0 2 4 4 4 2 0 0 2 2 2 1 1 0 1 2 3 1 2 1 2 1 2 1 1 0 1 2 3 5 4 5 4 3 2 2 3 6 6 5 5 4 5 5 6 9 11 14 16
8 5 5 10 12 11 10 7 3 3 5 5 3 1 1 2 2 3 3 3 2 2 2 0 0 1 1 1 1 2 2 2 3 2 1 1 1 1 1 0 1 4 6 5 2 0 1 1 2 3 2 1 1 2 2 2 2 2 2 1 1 2 2 1 1 1 0 1 4 4 4 3 3 3 2 3 5 6 5 4 5 6 8 10 12 13 16 17
7 3 4 9 11 10 9 6 4 4 5 4 2 1 1 1 2 3 3 3 2 2 1 1 1 1 0 0 0 1 2 2 2 1 0 1 1 1 2 2 2 2 4 4 2 1 1 1 1 3 3 2 1 2 2 2 2 2 2 2 2 1 1 0 1 0 1 0 2 4 5 5 3 2 1 2 3 4 4 3 6 9 12 14 15 15 17 17
6 3 3 9 10 9 7 6 7 7 4 2 2 2 1 2 2 3 4 4 4 3 3 2 2 2 1 0 0 1 1 2 2 1 1 1 0 1 1 2 3 3 3 3 1 2 1 0 2 4 4 2 1 1 2 2 1 1 1 2 1 1 1 2 2 2 1 1 1 1 4 7 5 2 0 2 3 2 2 5 9 13 16 17 16 17 17 18
4 2 4 8 9 7 5 6 7 6 3 2 3 3 2 2 3 2 3 4 4 3 3 3 3 3 2 1 1 2 2 1 1 1 1 1 0 1 1 2 3 3 2 1 1 2 1 0 2 3 3 0 1 1 1 1 0 2 1 0 1 1 2 1 1 2 1 0 0 1 2 7 5 1 0 1 2 4 6 9 13 16 18 17 17 18 18 18
5 3 4 7 8 5 3 4 4 5 3 2 3 3 3 3 2 2 2 2 2 2 2 2 2 3 2 0 1 2 2 1 1 0 1 1 1 2 1 1 3 3 2 1 1 2 1 1 1 3 2 1 2 2 0 2 1 0 2 2 1 1 2 2 2 1 0 2 2 3 2 7 6 1 1 3 5 7 9 12 15 18 18 17 17 19 19 20
5 4 3 6 8 4 2 3 2 2 2 2 3 3 3 2 2 2 2 2 2 1 1 1 1 2 2 1 2 1 0 1 1 0 1 1 1 2 1 2 3 3 2 2 1 2 1 1 0 2 4 3 2 1 2 3 1 2 2 3 4 3 5 3 2 3 0 4 5 3 4 7 4 2 3 6 7 9 12 13 14 14 15 16 18 20 21 21
5 3 2 6 9 5 4 5 5 5 3 2 3 1 2 3 2 2 3 2 2 1 1 2 2 3 3 2 3 2 1 1 1 0 0 0 1 2 2 2 3 3 2 3 2 1 0 0 1 0 1 2 2 3 2 2 2 2 2 4 4 5 6 3 2 3 2 4 5 5 6 6 5 3 4 7 6 8 13 15 14 14 14 16 18 20 21 20
4 2 2 5 8 8 9 7 6 7 5 4 3 2 2 2 1 2 3 2 2 3 3 3 3 3 2 1 2 2 2 2 1 1 1 0 2 2 2 3 3 2 3 3 2 1 1 1 2 4 5 5 4 4 2 1 3 4 3 4 5 6 7 5 2 2 4 3 4 8 9 11 14 10 6 7 7 8 14 17 17 17 17 18 20 22 22 20
2 1 1 3 5 7 10 8 7 6 6 5 3 3 4 3 1 2 2 1 2 4 2 1 2 3 3 3 2 1 1 2 2 0 2 1 2 2 3 4 3 3 4 3 1 1 1 2 4 5 7 8 6 7 6 4 5 7 6 5 6 7 7 7 6 5 3 2 5 8 6 8 15 13 10 11 10 10 15 18 20 20 21 23 24 24 23 23
2 1 0 1 1 2 3 4 6 7 6 4 2 3 4 4 3 2 2 1 2 4 2 0 3 5 5 4 3 2 1 1 1 2 2 1 2 2 3 3 2 4 4 3 1 2 2 2 2 1 5 8 9 11 10 7 7 8 8 8 7 8 9 11 12 9 4 4 8 7 4 9 15 15 14 15 14 16 20 22 23 24 25 27 26 24 24 24
3 3 2 3 2 2 2 3 6 7 7 5 2 2 4 5 4 2 3 3 0 3 4 2 4 6 7 4 2 3 3 2 2 3 2 2 2 2 2 1 2 4 4 2 1 1 1 1 1 0 5 10 11 12 11 8 7 8 10 11 9 10 12 12 12 10 10 12 15 13 15 17 18 17 17 22 25 26 26 24 23 24 27 27 25 24 24 25
2 2 2 3 3 4 5 6 6 4 3 3 1 2 4 5 5 3 3 5 1 1 5 4 3 5 7 5 3 1 2 3 1 2 4 3 1 2 2 1 3 4 3 2 1 0 1 1 1 1 3 7 7 6 6 6 7 9 11 11 10 10 10 11 11 9 9 13 15 14 15 17 19 19 18 23 25 23 21 22 22 23 25 24 23 24 25 26
0 0 1 3 3 3 4 4 3 2 1 1 2 3 4 5 7 6 3 4 4 4 7 7 4 5 4 4 6 2 1 3 4 3 5 5 2 3 3 2 5 5 3 3 2 1 2 1 1 2 3 5 2 3 6 7 8 11 14 13 12 11 8 8 9 8 10 11 10 8 8 11 13 12 11 14 16 16 18 20 22 23 23 21 23 25 27 29
1 1 2 2 1 2 3 2 2 1 1 3 4 5 4 4 9 10 3 2 5 5 7 7 6 5 2 2 6 4 1 2 3 4 5 5 3 4 3 3 6 6 4 4 3 2 2 1 1 2 2 4 1 4 8 9 7 7 9 8 10 11 9 7 7 9 12 10 6 5 8 9 8 7 6 9 13 15 19 21 22 24 25 24 26 28 31 33
Wind_Direction
90 88 88 91 94 99 101 98 98 100 103 106 107 105 94 75 49 29 17 0 329 163 128 102 88 78 69 64 58 53 52 47 51 61 50 31 20 19 22 30 42 43 52 65 60 49 46 56 61 67 67 61 50 42 48 37 32 54 75 66 77 61 53 37 27 61 108 105 90 67 13 33 60 25 358 320 54 88 63 52 47 56 43 27 10 342 341 357
93 91 90 90 91 93 92 95 100 102 106 108 106 97 78 56 46 47 51 51 55 129 163 152 116 95 81 70 58 53 48 44 53 52 38 30 35 35 36 43 48 48 51 67 74 62 50 57 68 77 73 61 44 43 57 40 37 47 69 72 68 65 63 58 49 57 83 99 97 77 37 52 45 360 351 344 52 59 46 37 27 25 13 7 354 342 353 2
94 92 88 86 85 86 90 96 99 104 108 108 104 95 80 51 46 57 63 63 61 68 108 159 172 151 108 77 63 58 45 43 45 33 26 32 39 39 42 45 51 57 57 66 79 73 60 63 72 74 72 63 47 51 53 34 36 42 62 83 73 95 78 62 61 53 58 85 96 82 54 66 45 6 2 344 355 50 50 28 12 6 355 352 347 350 1 357
91 88 85 83 82 86 93 96 101 108 108 107 103 91 66 34 50 73 71 67 62 56 58 73 218 232 223 195 96 76 41 44 33 17 21 30 33 39 41 42 49 59 65 63 65 72 67 64 77 73 69 65 50 55 47 32 52 48 54 93 102 103 87 59 64 55 45 54 81 85 71 71 39 21 17 354 331 57 44 23 9 356 344 343 347 357 358 348
87 86 83 83 87 93 99 102 107 109 107 104 93 74 54 51 79 86 78 72 66 61 59 62 69 73 219 218 227 262 319 41 18 17 27 28 30 36 38 44 47 53 69 64 55 57 57 60 79 69 62 59 46 53 46 44 76 67 57 81 90 95 92 67 68 64 47 47 72 66 52 56 32 39 25 17 35 45 18 8 359 346 341 341 347 355 348 342
86 85 84 88 92 94 98 103 107 107 105 93 76 61 55 64 83 87 78 60 48 47 53 67 74 75 80 90 129 117 99 86 4 21 30 28 31 34 35 43 46 48 59 75 81 70 62 69 75 69 65 63 56 60 52 54 82 91 66 70 78 84 85 79 76 67 44 39 52 47 54 29 19 59 36 35 47 23 1 352 350 349 348 347 346 346 342 343
87 87 90 95 93 91 95 101 106 104 96 80 65 57 53 59 65 65 50 16 1 4 21 89 86 78 79 77 82 83 77 60 16 26 31 30 35 37 37 45 51 50 50 73 92 84 70 71 75 75 78 72 67 73 68 66 78 93 87 76 78 81 81 79 76 68 47 54 58 55 79 27 20 44 34 51 44 3 351 347 359 355 350 352 347 344 344 347
87 89 92 95 93 90 92 97 100 97 87 72 62 57 56 61 65 64 57 46 34 21 42 121 103 68 67 68 70 65 51 29 19 29 31 33 40 43 41 48 55 54 55 66 86 89 75 71 76 74 75 79 88 98 86 72 66 75 95 94 89 85 86 85 79 75 63 74 65 36 77 43 33 19 25 54 29 352 354 356 357 346 347 354 349 347 346 348
85 86 88 91 91 87 87 87 89 89 78 64 59 60 63 68 69 65 64 64 63 57 67 119 127 18 58 79 76 58 30 11 17 28 31 34 43 48 48 51 56 59 63 68 81 88 80 74 79 86 90 85 85 97 94 74 62 85 103 102 101 96 96 96 86 80 77 83 11 338 89 66 4 320 41 65 20 352 352 347 336 337 350 354 349 349 345 346
82 84 87 87 85 80 78 78 80 79 66 56 56 62 68 68 64 56 64 79 76 67 65 76 85 76 96 93 82 65 17 19 30 32 33 35 43 50 53 52 55 64 70 72 76 80 85 86 88 94 94 78 66 60 62 88 115 111 110 106 106 107 107 104 98 97 103 92 353 343 92 81 329 276 73 58 12 352 352 337 326 340 347 348 348 348 348 347
83 84 85 81 76 72 70 73 74 71 61 59 59 61 65 60 57 49 51 68 78 67 62 70 77 81 94 83 72 62 22 32 40 41 40 37 42 46 49 49 50 60 69 73 74 77 88 97 100 93 83 82 79 66 72 101 125 121 116 109 108 112 106 99 109 120 167 119 12 353 44 92 280 280 70 25 352 341 334 312 315 342 338 344 347 349 354 351
82 80 75 68 63 57 58 66 67 69 65 64 61 58 58 51 57 59 52 56 55 59 75 66 60 64 75 67 59 49 34 38 40 42 41 39 43 46 47 46 47 56 62 68 72 73 76 85 109 101 92 100 90 75 95 115 127 129 123 112 121 118 92 64 92 121 271 88 34 330 348 222 232 146 109 352 352 334 313 300 315 340 337 344 344 351 356 349
77 72 66 58 51 43 39 38 45 57 58 65 59 50 55 51 58 71 63 60 58 65 80 80 71 75 77 61 49 46 44 42 41 39 38 39 43 49 51 49 50 57 60 64 68 70 69 69 102 106 105 106 92 106 128 133 140 155 141 126 154 134 73 34 51 107 211 44 63 247 2 144 160 140 144 349 19 345 319 314 331 338 341 345 346 352 354 349
75 69 63 56 50 44 38 32 36 40 48 70 56 44 65 66 65 76 72 64 63 69 76 79 77 76 81 71 48 47 48 44 46 42 39 37 40 49 54 56 57 62 66 66 67 72 78 84 91 94 93 92 103 120 128 147 177 183 97 143 201 127 69 41 26 10 175 83 108 164 352 131 136 149 166 7 31 340 322 313 323 336 340 340 347 351 353 353
74 66 57 51 47 43 41 41 41 40 59 90 67 61 86 86 75 78 72 64 69 75 74 74 73 72 76 72 45 44 46 44 43 40 40 36 40 49 55 65 66 67 69 69 70 74 82 85 79 76 80 93 109 127 141 183 201 184 103 356 330 56 113 97 36 26 24 305 230 207 316 101 127 148 169 285 348 296 305 299 312 332 337 339 345 349 351 352
63 49 43 43 45 43 43 51 56 56 68 99 107 87 90 96 87 82 73 62 66 73 74 72 66 67 72 58 35 38 38 39 36 35 39 37 40 47 57 75 75 69 67 66 67 71 75 74 68 61 56 72 98 324 218 181 170 189 79 41 347 23 110 154 59 30 6 315 236 202 283 334 125 141 167 206 306 283 294 296 316 329 332 336 336 346 350 348
28 25 28 36 44 46 57 79 80 76 79 89 102 94 73 76 91 86 68 58 69 70 71 77 73 67 65 41 27 30 31 35 33 35 39 37 40 44 54 72 73 67 61 53 49 57 61 56 62 59 43 36 3 358 62 71 38 1 25 79 350 25 48 148 106 22 1 334 261 202 246 295 131 137 169 192 236 275 289 295 317 326 324 329 331 344 348 347
14 20 27 39 45 54 89 95 84 79 80 82 85 82 71 64 66 77 66 58 81 67 61 61 61 73 54 23 18 25 31 35 32 34 34 35 45 50 53 56 58 59 51 43 27 34 49 43 50 66 33 30 18 18 68 59 346 347 8 22 354 51 65 56 124 11 3 347 327 264 253 280 161 152 175 186 208 257 286 295 310 306 303 314 324 336 343 347
23 28 33 44 45 55 115 111 84 74 72 76 83 80 74 73 74 73 76 80 69 63 51 37 44 92 52 16 21 31 38 37 31 31 33 34 47 56 55 52 49 49 49 43 21 24 43 44 38 44 12 12 14 16 32 355 331 337 342 329 348 330 41 76 99 27 12 339 300 274 275 301 292 254 186 176 192 246 273 278 291 289 285 299 315 331 342 344
29 33 35 45 43 45 119 144 100 51 32 34 65 62 70 75 69 61 65 70 68 69 76 60 59 77 56 31 35 41 44 39 31 32 35 31 43 55 50 43 43 50 50 29 14 30 57 68 41 34 9 352 355 357 339 320 316 314 310 303 315 317 331 108 104 44 16 336 266 251 288 287 282 273 210 169 195 249 260 267 300 305 309 316 318 333 340 339
32 33 34 44 44 44 67 132 170 340 2 20 66 73 90 88 90 79 69 67 65 65 64 59 58 58 49 37 37 40 50 43 35 38 36 30 44 49 41 39 37 42 40 53 64 47 57 71 44 23 13 331 321 321 315 316 320 313 306 305 275 249 306 113 105 45 22 3 269 274 305 280 283 280 216 166 197 246 253 284 311 311 320 318 320 335 331 331
32 32 36 45 48 53 65 85 88 71 74 90 93 89 90 91 95 95 88 76 61 56 53 50 48 44 40 36 35 38 45 38 28 32 35 44 61 60 46 49 52 34 25 66 95 53 52 69 31 4 347 310 297 307 311 301 309 309 296 305 311 339 324 17 95 33 1 357 290 322 321 285 281 272 203 168 205 234 213 245 274 292 302 308 318 326 321 326
28 29 36 44 58 69 78 89 92 93 92 88 86 86 85 88 88 84 86 88 65 48 42 41 38 33 30 28 26 36 46 40 15 18 25 38 58 59 50 48 54 46 36 41 63 64 61 42 360 343 329 311 312 16 0 299 273 339 2 349 332 5 359 289 58 352 314 282 286 305 297 282 276 254 188 181 206 200 204 245 267 279 286 304 316 317 320 333
23 27 33 41 68 88 98 105 103 99 91 81 75 74 75 76 79 82 81 89 82 41 31 32 30 27 24 18 14 35 50 45 22 15 21 29 44 52 50 41 43 50 54 66 74 81 93 4 341 304 278 275 282 22 22 352 320 31 34 41 329 343 345 267 304 318 303 269 279 296 292 284 245 203 192 187 185 200 227 230 256 270 267 294 314 313 326 337
19 24 28 34 61 100 129 131 132 125 98 80 59 48 49 54 56 69 78 90 85 17 16 21 20 21 17 11 10 35 57 44 26 18 20 27 34 51 55 37 37 38 41 73 82 80 75 13 329 298 271 271 290 19 23 2 358 17 2 4 324 314 297 288 306 318 327 307 290 355 10 305 232 194 209 157 154 227 214 198 226 259 244 276 309 319 332 337
17 20 23 26 39 86 149 162 199 207 205 316 342 7 21 27 35 42 65 100 44 345 1 11 7 15 15 10 5 25 73 35 20 20 23 27 30 55 62 25 50 68 36 71 95 78 38 10 326 299 281 284 17 82 18 360 341 289 245 278 321 302 279 285 308 339 7 286 281 55 80 288 297 248 209 145 169 254 206 186 203 201 208 264 303 319 327 330
16 17 20 20 23 43 140 212 236 232 247 288 314 330 357 10 31 33 27 89 22 331 353 2 0 18 18 17 23 59 75 340 2 21 27 29 33 56 75 19 50 71 71 116 75 349 1 14 356 341 314 328 81 109 352 30 343 265 225 272 306 277 264 286 315 267 236 290 325 23 72 203 289 286 150 101 264 278 252 164 171 164 195 253 289 312 322 323
16 19 18 17 19 24 18 299 247 245 252 274 310 318 343 16 63 28 52 102 329 333 2 3 11 23 19 27 38 59 51 2 7 18 24 34 38 53 71 59 79 74 69 146 113 309 345 27 350 338 356 32 62 259 293 51 251 244 207 271 290 286 292 314 328 267 271 21 353 328 24 111 275 290 44 60 306 286 22 98 130 155 194 236 280 301 315 317
16 19 18 16 20 23 16 355 260 245 247 256 299 344 348 12 222 23 62 160 317 7 15 2 3 3 0 29 39 43 39 32 31 9 24 37 34 52 84 71 79 66 41 64 116 187 114 110 301 330 360 13 288 270 268 182 204 336 17 271 249 298 304 297 301 279 295 47 234 287 341 11 290 281 247 220 265 303 31 72 109 135 191 256 277 294 310 314
13 16 15 13 17 19 17 17 333 213 211 220 186 125 86 75 82 49 49 239 359 28 352 6 4 351 358 27 36 25 29 33 17 10 27 35 33 50 86 67 50 59 47 56 77 123 161 177 254 4 10 298 279 278 260 216 232 335 7 275 226 239 238 205 241 268 333 2 231 269 327 11 313 273 203 161 199 55 29 19 47 43 7 342 334 326 320 316
11 13 10 11 17 16 16 20 26 166 157 150 147 126 101 65 54 85 112 259 11 350 348 21 18 360 13 57 27 5 11 22 10 15 22 20 28 35 46 39 17 39 77 46 57 101 177 160 249 211 338 317 283 272 254 218 244 331 268 252 283 265 274 134 227 121 58 337 241 218 314 56 203 265 125 124 118 82 64 26 18 6 355 348 339 325 316 315
12 12 10 14 17 15 13 13 20 132 143 137 139 116 83 41 27 140 222 312 352 359 26 41 2 5 14 33 29 355 357 5 2 17 19 360 28 30 44 48 340 45 51 346 353 50 245 212 305 245 346 351 328 285 303 210 268 324 258 310 8 15 14 24 340 22 63 267 221 193 274 231 216 237 130 126 116 94 89 62 13 340 329 321 317 318 319 321
11 11 13 15 15 15 13 12 23 112 141 137 134 73 54 78 13 197 247 337 328 6 46 18 340 356 1 20 23 351 353 330 343 3 354 3 64 63 69 53 16 133 24 338 336 343 321 299 331 329 355 1 8 13 5 334 322 346 3 10 25 33 25 360 332 345 333 265 216 181 223 281 264 262 124 119 114 115 123 112 330 312 308 307 313 322 326 329
8 9 12 11 11 11 12 16 26 100 143 141 124 53 48 94 253 156 144 295 282 338 32 5 321 345 30 52 27 331 21 329 336 360 354 11 44 26 38 33 22 13 302 360 13 347 10 323 336 17 334 350 20 70 235 298 313 321 313 89 66 65 64 352 335 314 289 294 292 207 154 224 253 271 117 115 124 145 161 224 271 293 292 298 308 313 320 323
4 6 9 7 8 8 11 17 23 95 146 142 93 58 57 148 199 135 147 201 151 191 337 350 325 352 29 48 9 335 56 2 341 14 16 22 37 9 353 353 5 7 322 22 11 331 63 268 298 18 330 340 29 17 298 11 304 286 293 67 69 182 191 228 244 224 264 324 311 271 212 203 215 262 127 120 144 191 211 249 258 278 286 289 295 300 307 311
2 4 8 7 7 7 11 17 23 104 148 125 69 64 73 150 181 58 35 55 120 133 123 8 354 33 71 52 7 355 43 7 339 20 36 44 58 31 41 309 348 8 34 71 23 349 5 271 236 38 325 5 57 350 352 39 315 305 358 43 194 186 129 116 345 8 74 24 291 278 298 302 338 330 213 141 216 220 207 238 264 278 284 288 294 301 308 309
1 5 12 11 10 10 12 19 47 120 137 77 68 87 102 77 358 350 1 5 86 113 102 88 2 52 120 122 56 347 12 9 349 22 48 60 66 17 9 171 352 16 39 52 36 71 340 278 253 323 295 224 79 332 322 311 298 25 17 198 178 66 80 110 351 344 4 319 286 309 320 300 291 310 307 209 235 224 198 206 262 279 286 302 310 313 313 309
1 6 16 13 11 11 16 32 72 118 98 67 82 107 105 59 4 3 6 16 33 24 66 94 349 92 159 99 94 329 13 15 352 37 62 6 68 331 295 350 21 18 10 359 359 70 50 309 305 305 288 196 149 359 342 313 331 51 94 173 122 66 33 331 333 324 347 318 290 304 317 293 227 230 276 228 219 210 187 196 234 272 294 311 310 309 310 310
357 2 18 11 9 12 20 37 87 112 74 70 102 116 71 73 37 32 31 30 18 6 45 102 358 89 81 32 16 333 30 33 353 36 79 33 60 335 315 333 10 12 0 359 18 357 73 58 299 292 318 341 354 44 37 346 339 27 56 27 39 114 162 258 267 202 207 292 298 316 324 298 238 211 214 202 193 178 173 205 241 278 295 300 301 304 309 310
355 7 17 5 6 10 17 42 78 73 64 68 93 102 96 101 62 47 54 58 51 36 39 345 8 95 70 357 9 348 34 32 7 43 63 23 69 4 26 42 15 3 348 354 21 340 7 95 281 302 331 340 351 33 22 11 12 15 29 24 5 24 118 248 311 86 125 197 302 315 298 276 250 219 196 131 144 155 164 219 266 285 295 299 302 304 306 308
2 20 4 0 7 8 15 48 53 53 81 99 73 82 123 123 104 66 56 69 78 73 68 45 52 91 79 52 35 353 17 25 12 22 9 29 96 339 59 51 19 1 340 343 19 8 359 26 302 303 312 330 88 41 5 9 53 74 62 62 33 10 35 9 337 346 51 166 223 289 290 277 263 238 196 107 123 166 209 243 270 289 299 302 306 307 307 309
14 11 348 359 5 3 24 57 45 43 81 101 71 81 108 115 114 83 58 75 88 78 73 68 54 60 63 46 39 22 25 47 42 355 333 195 127 25 77 70 37 21 11 25 101 56 62 213 298 282 271 76 115 119 43 359 141 149 167 50 46 103 131 125 284 297 351 308 174 63 288 273 270 262 15 141 185 236 261 265 273 286 296 302 308 311 310 310
9 352 341 359 2 360 47 71 52 42 54 82 93 92 97 99 107 112 74 61 78 68 65 75 45 48 62 348 85 67 21 43 124 235 224 208 61 60 104 86 64 29 15 128 164 12 39 156 274 276 271 100 132 166 147 354 19 134 241 223 181 156 131 131 154 141 356 209 154 80 275 268 279 283 238 236 233 250 269 281 283 285 294 304 310 311 310 311
356 346 338 3 2 356 93 101 97 91 79 99 95 75 78 77 70 104 101 60 70 50 48 89 73 71 85 67 86 107 339 65 61 348 185 215 63 106 135 124 102 55 35 155 172 350 2 135 222 310 325 345 5 349 326 339 347 247 245 190 167 125 99 88 92 93 344 225 183 164 251 258 272 293 264 257 251 257 275 293 298 294 303 313 313 312 311 311
360 350 356 15 5 12 93 114 128 129 137 131 110 108 108 80 56 99 111 98 103 86 80 113 112 103 103 83 78 61 18 65 109 316 232 120 109 123 128 151 140 92 96 157 141 42 207 94 118 76 340 309 307 299 275 292 277 244 193 170 176 152 144 146 89 110 221 230 181 189 243 267 290 298 276 268 260 274 296 311 315 309 311 313 310 311 312 312
18 21 7 11 11 40 80 99 116 124 146 154 129 159 158 99 67 135 116 107 132 122 108 128 135 121 121 116 91 63 11 5 63 55 280 193 117 133 146 148 157 140 129 140 128 80 49 338 218 205 219 236 259 267 253 11 307 271 241 192 188 181 178 162 107 177 208 208 223 230 240 272 286 285 287 295 296 301 306 311 313 311 309 305 306 312 312 310
33 43 354 1 15 49 69 72 86 113 149 161 146 150 143 117 107 150 140 134 168 153 119 114 166 170 177 161 122 105 327 354 54 127 269 245 108 123 157 153 170 175 139 127 135 92 76 273 243 224 236 250 268 278 289 316 284 266 269 244 204 189 187 181 193 210 171 123 250 240 212 250 276 283 294 298 300 302 301 303 305 305 303 302 306 310 309 306
51 73 109 100 36 51 52 52 82 101 106 111 129 144 136 139 157 170 179 162 175 180 158 348 241 223 205 172 142 147 157 5 308 226 260 232 156 143 156 159 156 148 132 119 99 87 114 242 261 239 264 274 280 277 278 279 265 257 260 256 230 199 192 201 216 220 195 211 243 256 277 274 275 282 287 285 286 289 291 295 298 299 299 301 305 306 306 307
61 72 100 125 113 109 111 108 112 104 89 80 102 154 156 169 176 162 136 123 353 231 187 214 245 219 210 204 146 146 179 199 247 241 219 183 205 197 168 166 159 160 156 137 104 57 116 225 236 213 276 276 269 267 265 256 259 260 249 243 237 222 212 217 228 222 219 240 252 267 284 280 272 271 275 279 283 284 286 290 293 294 298 300 300 299 301 307
58 67 108 118 92 92 108 119 122 109 79 63 85 182 177 178 176 163 157 158 152 212 189 211 233 191 188 199 185 181 211 178 142 219 189 160 200 225 206 167 137 160 190 169 146 99 135 195 181 147 283 281 270 275 271 249 251 262 256 240 228 233 233 232 239 226 220 245 255 262 273 275 270 268 267 272 278 279 281 285 287 290 294 294 293 295 298 305
48 38 141 117 89 98 112 119 118 85 61 145 167 173 186 204 190 165 155 190 185 178 189 194 173 138 138 197 209 223 14 106 108 136 173 171 176 189 194 157 134 148 189 178 149 150 162 237 4 66 323 293 310 341 302 279 266 264 266 252 223 220 227 226 230 214 205 227 248 259 260 260 268 273 263 265 276 280 279 283 288 291 294 294 293 295 299 303
215 186 180 149 98 142 149 148 130 94 177 196 178 168 177 203 183 165 148 235 204 187 189 183 157 134 121 213 214 203 158 154 144 142 166 174 163 147 140 134 136 141 161 160 145 144 156 219 347 39 309 275 319 336 312 311 311 285 273 247 205 202 220 236 244 227 209 209 217 230 236 249 281 303 292 284 290 288 285 287 291 293 296 297 296 297 300 302